CAPE
nan nan nan nan nan nan nan 0 nan nan nan 1 1 1 4 11 11 11 20 11 11 7 8 12 12 15 31 69 88 88 95 95 88 88 84 79 76 76 77 81 81 83 87 91 91 94 96 101 101 103 109 111 115 115 121 127 127 140 154 164 164 187 208 237 237 274 302 324 338 338 346 352 353 353 344 332 327 327 349 373 373 393 401 382 382 375
nan nan nan nan nan nan nan 1 1 1 0 1 3 3 5 5 6 6 11 13 13 12 14 17 17 22 23 46 77 77 79 75 73 73 71 70 71 71 74 77 77 79 83 84 84 88 92 93 93 95 99 104 109 109 109 116 116 131 137 157 157 180 214 257 257 275 297 319 329 329 342 344 351 351 343 335 341 341 358 382 382 407 385 371 371 360
nan nan nan 0 0 nan nan 1 3 3 4 3 6 6 6 9 9 9 10 12 12 23 25 20 20 21 17 34 60 60 62 62 62 62 64 64 64 64 68 67 67 69 73 77 77 79 82 83 83 87 95 99 100 100 106 114 114 126 134 159 159 186 216 248 248 254 267 274 286 286 303 321 327 327 330 340 352 352 387 413 413 413 393 363 363 372
0 nan nan 1 1 1 0 0 3 3 8 9 12 12 11 13 13 13 16 19 19 30 29 22 22 14 9 14 40 40 53 57 58 58 58 59 59 59 59 60 60 61 66 73 73 75 80 84 84 88 94 97 101 101 111 120 120 130 150 174 174 192 196 207 207 211 209 220 230 230 250 270 291 291 303 319 348 348 387 419 419 413 387 377 377 386
4 1 0 2 2 2 4 4 6 6 13 14 14 14 17 19 19 19 29 33 33 24 18 14 14 7 4 8 28 28 46 51 51 51 52 54 53 53 54 57 57 62 69 74 74 79 82 87 87 93 96 103 108 108 120 130 130 146 157 177 177 176 172 178 178 178 184 201 222 222 238 260 283 283 279 305 324 324 350 362 362 372 356 369 369 405
5 4 5 5 5 3 6 9 13 13 15 13 16 16 22 27 30 30 35 30 30 19 12 9 9 5 2 1 21 21 40 43 42 42 44 48 51 51 54 58 58 64 72 79 79 82 87 92 92 95 98 106 116 116 127 142 142 145 152 153 153 155 155 162 162 178 187 203 213 213 224 230 236 236 240 237 264 264 292 296 296 304 300 329 329 367
7 9 9 6 6 8 10 13 16 16 12 14 19 19 31 37 30 30 23 17 17 19 14 8 8 4 2 3 16 16 30 30 34 34 37 45 51 51 57 60 60 68 75 81 81 86 93 95 95 98 101 111 117 117 124 124 124 129 129 138 138 144 148 159 159 166 176 185 183 183 187 188 191 191 185 186 190 190 214 238 238 264 282 307 307 328
9 9 11 9 9 12 13 13 21 21 28 31 33 33 34 17 16 16 30 31 31 21 3 0 0 nan nan nan nan nan nan 0 0 0 7 19 39 39 49 64 64 72 80 84 84 85 88 91 91 93 94 97 101 101 100 104 104 103 105 108 108 115 125 135 135 139 141 141 146 146 148 155 161 161 164 164 167 167 169 190 190 210 231 253 253 272
15 13 13 23 23 24 15 18 28 28 41 34 23 23 20 16 13 13 13 10 10 12 1 0 0 nan nan nan nan nan 4 9 4 4 9 6 10 10 36 58 58 66 76 79 79 81 81 84 84 85 87 90 94 94 94 94 94 93 93 97 97 102 113 122 122 133 135 143 142 142 148 149 150 150 153 156 161 161 167 184 184 200 221 244 244 266
18 22 22 19 19 15 15 31 34 34 48 34 28 28 22 14 8 8 7 4 4 1 1 2 2 1 1 1 1 1 4 13 41 41 59 43 61 61 48 39 39 36 59 68 68 69 69 72 72 75 79 83 86 86 84 82 82 81 83 86 86 95 103 116 116 127 132 135 140 140 141 145 150 150 153 153 160 160 168 181 181 188 202 225 225 250
27 30 20 21 21 27 34 40 37 37 24 25 18 18 12 9 8 8 3 1 1 0 1 2 2 3 3 2 2 2 5 3 7 7 28 41 48 48 44 37 37 38 51 52 52 50 52 59 59 64 68 72 72 72 70 67 67 71 77 83 83 87 96 107 107 117 126 133 140 140 148 151 156 156 156 160 164 164 168 178 178 180 194 202 202 224
25 20 19 33 33 35 34 34 26 26 15 9 7 7 8 11 16 16 5 3 3 2 2 3 3 5 4 6 8 8 6 3 2 2 5 12 17 17 14 10 10 15 24 28 28 35 44 51 51 55 54 54 62 62 61 57 57 65 72 80 80 87 91 104 104 110 127 139 154 154 155 163 170 170 172 170 171 171 169 170 170 178 183 193 193 209
23 23 31 35 35 25 22 17 8 8 7 5 5 5 5 5 10 10 12 6 6 4 5 6 6 7 7 6 12 12 7 4 3 3 3 4 4 4 3 2 2 1 2 2 2 2 24 39 39 45 49 45 52 52 54 55 55 62 73 84 84 92 97 109 109 119 139 151 163 163 171 173 178 178 180 182 183 183 183 183 183 183 188 196 196 206
33 31 29 33 33 20 15 8 9 9 7 8 6 6 6 7 10 10 7 7 7 6 7 6 6 7 13 14 14 14 9 4 3 3 3 4 6 6 5 1 1 0 1 1 1 2 15 20 20 15 34 34 40 40 42 55 55 67 78 88 88 99 112 122 122 137 150 164 172 172 175 173 182 182 181 179 177 177 183 182 182 180 190 197 197 202
30 24 15 14 14 13 10 10 9 9 7 7 6 6 9 11 9 9 7 5 5 8 13 13 13 14 12 6 9 9 8 6 5 5 3 2 5 5 5 2 2 2 2 3 3 3 15 12 12 4 6 15 21 21 34 48 48 77 85 95 95 107 115 127 127 138 145 156 165 165 165 167 166 166 173 175 177 177 178 171 171 179 186 190 190 199
20 16 15 10 10 8 11 9 6 6 6 8 10 10 10 9 6 6 8 9 9 16 20 18 18 15 10 7 7 7 5 4 4 4 0 3 5 5 4 3 3 3 3 2 2 3 6 5 5 5 6 21 40 40 51 62 62 78 91 100 100 108 115 122 122 130 136 143 152 152 157 159 166 166 167 170 170 170 166 168 168 175 183 187 187 190
17 12 8 16 16 9 9 8 8 8 11 9 8 8 8 8 6 6 12 17 17 13 18 15 15 9 6 4 4 4 4 3 3 3 2 5 3 3 3 2 2 3 2 1 1 2 3 3 3 5 7 28 47 47 57 68 68 84 88 96 96 104 108 114 114 120 130 139 141 141 144 149 152 152 154 154 150 150 152 153 153 156 169 172 172 179
12 6 5 12 12 10 8 10 9 9 12 8 6 6 7 13 11 11 18 22 22 15 18 11 11 1 1 3 1 1 4 5 4 4 6 5 4 4 5 3 3 3 2 2 2 2 2 2 2 4 13 48 57 57 62 74 74 83 93 92 92 96 100 109 109 113 117 125 129 129 129 128 131 131 130 133 134 134 137 140 140 143 149 155 155 162
9 11 11 11 11 11 12 10 9 9 8 8 14 14 16 20 16 16 21 18 18 16 13 6 6 7 3 0 1 1 2 4 4 4 7 7 4 4 3 2 2 3 2 1 1 1 3 6 6 25 39 52 56 56 66 75 75 80 87 90 90 92 97 98 98 104 107 111 111 111 115 115 120 120 123 123 126 126 128 131 131 134 140 142 142 148
10 11 12 11 11 12 13 12 11 11 12 19 21 21 22 23 24 24 22 20 20 14 8 6 6 7 6 3 2 2 3 3 5 5 7 8 3 3 2 2 2 3 1 1 1 3 4 5 5 13 29 39 46 46 58 64 64 74 81 84 84 85 85 89 89 92 99 103 108 108 112 113 116 116 115 120 124 124 126 130 130 129 135 143 143 145
13 13 11 12 12 13 12 13 17 17 29 33 25 25 23 23 25 25 21 15 15 12 9 9 9 7 7 5 3 3 3 3 6 6 6 6 4 4 1 3 3 3 1 2 2 5 6 4 4 1 14 33 43 43 50 57 57 65 69 74 74 76 78 81 81 84 92 100 100 100 101 104 107 107 104 108 112 112 117 117 117 125 133 136 136 140
13 13 17 19 19 17 24 24 35 35 44 35 26 26 28 17 19 19 15 12 12 12 16 12 12 13 15 10 8 8 6 6 5 5 7 6 4 4 1 3 3 3 2 3 3 5 4 3 3 1 14 32 38 38 43 48 48 56 64 66 66 68 67 70 70 74 76 79 85 85 82 86 87 87 91 95 97 97 106 110 110 119 130 135 135 139
18 15 18 23 23 23 25 25 32 32 46 31 35 35 27 15 14 14 10 13 13 16 14 14 14 16 13 12 10 10 6 6 4 4 1 1 3 3 1 3 3 3 3 2 2 2 2 0 0 0 11 32 34 34 38 43 43 50 53 55 55 56 56 59 59 62 62 65 72 72 76 79 80 80 84 89 91 91 103 108 108 118 128 134 134 140
21 24 25 24 24 24 23 28 32 32 42 37 28 28 25 16 17 17 24 23 23 19 15 16 16 15 14 12 6 6 4 4 4 4 1 2 3 3 2 3 3 1 2 1 1 0 1 0 0 0 4 26 30 30 32 37 37 42 45 44 44 47 47 47 47 50 54 61 65 65 70 71 78 78 80 86 90 90 95 102 102 108 116 123 123 130
23 23 22 20 20 38 34 43 63 63 55 37 18 18 24 32 34 34 27 25 25 17 16 12 12 10 10 9 2 2 2 3 3 3 2 1 1 1 2 2 2 2 1 0 0 1 1 0 0 1 1 10 22 22 27 30 30 31 34 35 35 37 39 41 41 47 51 56 60 60 64 69 69 69 74 73 81 81 82 86 86 90 95 101 101 104
38 30 23 42 42 99 134 153 137 137 80 28 21 21 21 28 27 27 25 18 18 14 12 7 7 8 5 3 1 1 0 4 3 3 0 0 0 0 1 3 3 3 1 2 2 5 1 0 0 nan 0 2 15 15 20 22 22 23 27 31 31 31 35 37 37 42 46 48 54 54 56 60 63 63 65 69 71 71 74 78 78 83 85 85 85 88
62 77 105 135 135 138 131 102 83 83 86 63 32 32 25 20 19 19 20 13 13 11 7 9 9 8 5 3 1 1 1 2 3 3 2 2 7 7 4 3 3 4 3 1 1 2 2 1 1 0 1 0 4 4 13 14 14 18 22 23 23 23 27 29 29 36 39 45 48 48 51 55 57 57 62 61 66 66 68 73 73 77 80 74 74 78
75 91 106 100 100 86 70 62 63 63 70 69 78 78 48 18 16 16 16 10 10 8 5 6 6 8 6 2 1 1 1 3 1 1 2 6 6 6 5 3 3 5 2 3 3 7 14 6 6 2 0 nan nan nan 5 10 10 12 15 15 15 18 21 23 23 27 30 34 39 39 42 46 49 49 52 58 61 61 67 72 72 72 74 69 69 44
79 83 73 56 56 44 46 48 49 49 53 55 60 60 42 14 13 13 12 8 8 9 10 9 9 8 6 3 2 2 1 1 1 1 2 5 7 7 1 3 3 3 1 4 4 3 5 2 2 1 nan nan nan nan 0 5 5 6 8 12 12 13 13 16 16 18 21 25 27 27 30 33 36 36 41 48 54 54 61 68 68 71 68 53 53 36
44 37 28 25 25 28 28 22 30 30 40 44 49 49 41 17 13 13 8 8 8 7 8 9 9 7 5 3 2 2 0 nan 0 0 3 5 6 6 4 5 5 5 7 4 4 3 0 1 1 1 nan nan nan nan nan nan nan nan 1 4 4 5 7 9 9 13 16 17 19 19 23 25 28 28 33 39 48 48 52 59 59 59 40 34 34 37
13 6 5 7 7 11 10 7 15 15 31 38 37 37 28 12 7 7 6 7 7 9 7 8 8 8 4 2 3 3 nan nan nan nan 1 5 7 7 6 5 5 7 8 1 1 1 0 nan nan 0 2 1 nan nan nan nan nan nan nan nan nan 1 4 5 5 7 12 12 15 15 17 18 23 23 27 33 40 40 48 51 51 50 26 21 21 21
3 3 3 4 4 5 4 5 5 5 6 6 6 6 10 10 7 7 6 7 7 8 8 9 9 8 8 3 2 2 1 nan 1 1 4 1 11 11 9 5 5 7 7 3 3 4 nan 1 1 1 0 1 0 0 nan nan nan nan nan nan nan nan 1 4 4 4 4 6 7 7 8 8 10 10 14 20 26 26 31 35 35 40 18 5 5 10
6 6 5 7 7 5 5 5 5 5 6 4 4 4 4 4 9 9 6 5 5 7 5 5 5 3 7 5 5 5 2 nan 2 2 10 1 6 6 6 6 6 5 6 6 6 4 1 1 1 1 1 0 0 0 0 nan nan nan nan nan nan nan 0 2 2 1 3 2 4 4 6 5 9 9 11 17 23 23 27 31 31 36 36 4 4 8
7 10 9 7 7 4 5 5 5 5 4 3 3 3 2 3 4 4 7 5 5 4 2 4 4 2 2 1 3 3 0 nan 2 2 8 1 2 2 3 7 7 3 5 4 4 6 2 2 2 1 nan 1 0 0 nan nan nan 0 0 nan nan nan nan 0 0 1 1 0 nan nan 0 0 6 6 6 12 17 17 25 31 31 36 46 23 23 9
6 6 6 5 5 5 5 4 3 3 2 3 2 2 2 2 2 2 4 5 5 4 2 0 0 0 1 nan 2 2 0 nan 1 1 7 1 0 0 1 5 5 1 2 2 2 5 1 2 2 4 2 1 nan nan nan nan nan 0 0 0 0 0 nan 0 0 1 1 0 nan nan nan nan nan nan 1 7 15 15 26 34 34 39 47 55 55 33
5 5 5 4 4 5 2 2 1 1 1 1 1 1 1 1 1 1 2 4 4 5 7 5 5 3 0 0 0 0 0 nan 2 2 7 0 0 0 0 3 3 2 0 2 2 3 0 2 2 6 6 1 0 0 nan nan nan 0 0 0 0 0 0 0 0 0 0 0 nan nan nan nan nan nan 0 9 18 18 25 33 33 36 40 48 48 49
6 5 6 5 5 3 3 1 1 1 0 nan 0 0 1 0 2 2 2 7 7 10 7 10 10 7 9 1 0 0 0 0 1 1 4 1 0 0 nan 3 3 5 0 0 0 2 2 2 2 5 3 1 0 0 nan 0 0 0 0 0 0 0 nan nan nan 0 1 1 0 0 nan nan nan nan 1 10 12 12 20 27 27 29 35 38 38 43
7 6 6 5 5 4 2 2 1 1 1 0 0 0 1 0 2 2 3 7 7 12 5 3 3 2 14 18 8 8 3 2 1 1 0 1 nan nan 0 2 2 4 1 0 0 1 0 0 0 3 2 0 2 2 2 1 1 0 0 0 0 nan nan nan nan 0 0 0 1 1 0 nan nan nan 0 1 0 0 2 3 3 14 24 27 27 35
7 6 6 6 6 4 2 2 1 1 0 1 1 1 0 1 3 3 2 4 4 5 5 3 3 3 4 6 14 14 10 5 0 0 nan nan nan nan nan 1 1 3 2 1 1 0 nan 0 0 0 2 1 1 1 1 1 1 1 0 0 0 0 nan nan nan nan nan nan 1 1 nan nan nan nan nan nan nan nan 1 2 2 8 9 8 8 22
9 7 7 6 6 3 1 1 0 0 0 1 3 3 2 2 1 1 1 2 2 3 3 2 2 3 4 6 6 6 9 4 4 4 nan nan nan nan nan nan nan 2 2 1 1 0 nan nan nan 1 3 2 2 2 2 1 1 1 3 0 0 nan nan nan nan nan nan nan nan nan nan nan nan nan nan 0 0 0 0 2 2 6 7 4 4 3
10 8 6 4 4 5 2 2 1 1 1 0 1 1 1 2 1 1 1 2 2 3 3 5 5 3 2 3 3 3 4 4 5 5 0 nan nan nan nan nan nan 1 0 1 1 nan nan nan nan 1 3 4 4 4 3 1 1 4 6 1 1 0 nan 0 0 0 0 nan nan nan 0 1 1 1 0 2 1 1 1 2 2 4 8 4 4 0
14 10 6 3 3 2 0 1 5 5 4 1 2 2 1 1 2 2 3 2 2 0 1 4 4 4 2 1 1 1 2 3 4 4 3 1 1 1 1 0 0 0 0 1 1 1 2 0 0 0 2 1 1 1 1 1 1 3 3 1 1 1 1 1 1 0 0 nan nan nan 2 0 0 0 0 1 2 2 5 5 5 12 12 3 3 0
9 7 5 2 2 1 3 5 4 4 3 1 0 0 0 0 2 2 4 4 4 3 5 5 5 4 2 2 0 0 1 1 4 4 4 2 2 2 2 0 0 0 0 nan nan 3 7 8 8 2 1 2 1 1 2 2 2 1 1 1 1 0 0 0 0 nan nan nan nan nan nan 0 0 0 1 2 1 1 3 8 8 18 15 1 1 0
8 6 5 4 4 4 5 3 1 1 1 0 1 1 1 1 4 4 6 5 5 5 4 5 5 5 4 2 1 1 0 1 1 1 2 4 2 2 2 1 1 2 3 0 0 4 7 8 8 3 2 3 4 4 3 1 1 0 0 1 1 0 nan nan nan 0 nan nan nan nan 0 0 2 2 2 1 0 0 1 2 2 1 8 3 3 0
4 5 5 6 6 5 5 3 1 1 1 1 1 1 1 2 5 5 3 5 5 6 5 4 4 3 5 3 1 1 0 0 0 0 1 4 10 10 5 1 1 3 5 6 6 1 0 3 3 3 3 3 3 3 1 1 1 1 1 1 1 1 0 0 0 nan nan nan nan nan 1 1 1 1 0 0 nan nan 1 5 5 6 6 4 4 1
4 5 6 5 5 4 4 3 1 1 0 1 2 2 2 3 3 3 3 4 4 4 3 3 3 2 2 3 1 1 1 0 0 0 0 1 3 3 2 3 3 4 7 9 9 6 0 0 0 0 nan 1 1 1 1 1 1 1 1 2 2 1 0 0 0 nan nan nan 0 0 1 2 1 1 nan 0 0 0 2 5 5 5 5 7 7 6
5 5 6 4 4 3 4 3 1 1 1 2 2 2 3 3 2 2 3 4 4 3 3 4 4 3 1 1 1 1 1 1 1 1 0 1 1 1 0 1 1 7 5 7 7 8 6 4 4 2 nan 1 1 1 1 1 1 2 1 1 1 1 nan nan nan nan nan nan 1 1 1 1 0 0 0 1 0 0 3 2 2 2 4 7 7 9
5 6 6 5 5 3 1 1 1 1 2 2 2 2 3 3 2 2 3 3 3 3 4 1 1 3 2 1 0 0 0 1 0 0 1 0 1 1 2 2 2 4 6 8 8 7 4 5 5 5 3 0 0 0 1 0 0 1 1 1 1 0 0 nan nan 0 0 1 1 1 2 0 0 0 1 1 1 1 0 0 0 0 1 7 7 4
3 3 3 4 4 4 2 1 1 1 1 0 2 2 2 4 12 12 3 2 2 2 2 2 2 2 2 2 1 1 1 1 0 0 0 0 1 1 1 3 3 2 3 5 5 3 4 5 5 5 2 1 1 1 1 0 0 0 1 1 1 1 nan nan nan 0 0 nan 0 0 0 nan nan nan nan 0 1 1 0 nan nan 0 0 1 1 nan
3 2 3 3 3 4 3 2 1 1 1 1 2 2 2 1 2 2 1 1 1 1 1 1 1 2 3 2 1 1 1 1 0 0 0 1 1 1 2 4 4 3 3 3 3 1 2 3 3 4 4 0 nan nan 0 0 0 1 2 1 1 1 nan nan nan 0 0 0 1 1 2 1 1 1 nan 0 1 1 nan nan nan nan nan 0 0 1
3 3 2 2 2 2 2 2 1 1 1 1 3 3 3 2 2 2 1 1 1 0 0 1 1 2 1 2 3 3 2 1 0 0 0 2 2 2 1 3 3 4 2 1 1 1 1 0 0 nan 0 3 3 3 1 2 2 3 3 2 2 0 nan nan nan 1 2 2 0 0 2 3 2 2 1 nan 1 1 0 nan nan nan nan nan nan 1
CIN
nan nan nan nan nan nan nan -0 nan nan nan -0 -0 -0 -0 -0 -0 -0 -0 -0 -0 -0 -0 -0 -0 -0 -0 -0 -0 -0 -0 -0 -0 -0 -0 -0 -0 -0 -0 -0 -0 -0 -0 -0 -0 -0 -0 -0 -0 -0 -0 -0 -0 -0 -0 -0 -0 -0 -0 -0 -0 -0 -0 -0 -0 -0 -0 -0 -0 -0 -0 -0 -0 -0 -0 -0 -0 -0 -0 -0 -0 -0 -0 -0 -0 -0
nan nan nan nan nan nan nan -0 -0 -0 -0 -0 -0 -0 -0 -0 -0 -0 -0 -0 -0 -0 -0 -0 -0 -0 -0 -0 -0 -0 -0 -0 -0 -0 -0 -0 -0 -0 -0 -0 -0 -0 -0 -0 -0 -0 -0 -0 -0 -0 -0 -0 -0 -0 -0 -0 -0 -0 -0 -0 -0 -0 -0 -0 -0 -0 -0 -0 -0 -0 -0 -0 -0 -0 -0 -0 -0 -0 -0 -0 -0 -0 -0 -0 -0 -0
nan nan nan -0 -0 nan nan -0 -0 -0 -0 -0 -0 -0 -0 -0 -0 -0 -0 -0 -0 -0 -0 -0 -0 -0 -0 -0 -0 -0 -0 -0 -0 -0 -0 -0 -0 -0 -0 -0 -0 -0 -0 -0 -0 -0 -0 -0 -0 -0 -0 -0 -0 -0 -0 -0 -0 -0 -0 -0 -0 -0 -0 -0 -0 -0 -0 -0 -0 -0 -0 -0 -0 -0 -0 -0 -0 -0 -0 -0 -0 -0 -0 -0 -0 -0
-0 nan nan -0 -0 -0 -0 -0 -0 -0 -0 -0 -0 -0 -0 -0 -0 -0 -0 -0 -0 -0 -0 -0 -0 -0 -0 -0 -0 -0 -0 -0 -0 -0 -0 -0 -0 -0 -0 -0 -0 -0 -0 -0 -0 -0 -0 -0 -0 -0 -0 -0 -0 -0 -0 -0 -0 -0 -0 -0 -0 -0 -0 -0 -0 -0 -0 -0 -0 -0 -0 -0 -0 -0 -0 -0 -0 -0 -0 -0 -0 -0 -0 -0 -0 -0
-0 -0 -0 -0 -0 -0 -0 -0 -0 -0 -0 -0 -0 -0 -0 -0 -0 -0 -0 -0 -0 -0 -0 -0 -0 -0 -0 -0 -0 -0 -0 -0 -0 -0 -0 -0 -0 -0 -0 -0 -0 -0 -0 -0 -0 -0 -0 -0 -0 -0 -0 -0 -0 -0 -0 -0 -0 -0 -0 -0 -0 -0 -0 -0 -0 -0 -0 -0 -0 -0 -0 -0 -0 -0 -0 -0 -0 -0 -0 -0 -0 -0 -0 -0 -0 -0
-0 -0 -0 -0 -0 -0 -0 -0 -0 -0 -0 -0 -0 -0 -0 -0 -0 -0 -0 -0 -0 -0 -0 -0 -0 -0 -0 -0 -0 -0 -0 -0 -0 -0 -0 -0 -0 -0 -0 -0 -0 -0 -0 -0 -0 -0 -0 -0 -0 -0 -0 -0 -0 -0 -0 -0 -0 -0 -0 -0 -0 -0 -0 -0 -0 -0 -0 -0 -0 -0 -0 -0 -0 -0 -0 -0 -0 -0 -0 -0 -0 -0 -0 -0 -0 -0
-0 -0 -0 -0 -0 -0 -0 -0 -0 -0 -0 -0 -0 -0 -0 -0 -0 -0 -0 -0 -0 -0 -0 -0 -0 -0 -0 -0 -0 -0 -0 -0 -0 -0 -0 -0 -0 -0 -0 -0 -0 -0 -0 -0 -0 -0 -0 -0 -0 -0 -0 -0 -0 -0 -0 -0 -0 -0 -0 -0 -0 -0 -0 -0 -0 -0 -0 -0 -0 -0 -0 -0 -0 -0 -0 -0 -0 -0 -0 -0 -0 -0 -0 -0 -0 -0
-0 -0 -0 -0 -0 -0 -0 -0 -0 -0 -0 -0 -0 -0 -0 -0 -0 -0 -0 -0 -0 -0 -0 -0 -0 nan nan nan nan nan nan -0 -0 -0 -0 -0 -0 -0 -0 -0 -0 -0 -0 -0 -0 -0 -0 -0 -0 -0 -0 -0 -0 -0 -0 -0 -0 -0 -0 -0 -0 -0 -0 -0 -0 -0 -0 -0 -0 -0 -0 -0 -0 -0 -0 -0 -0 -0 -0 -0 -0 -0 -0 -0 -0 -0
-0 -0 -0 -0 -0 -0 -0 -0 -0 -0 -0 -0 -0 -0 -0 -0 -0 -0 -0 -0 -0 -0 -0 -0 -0 nan nan nan nan nan -0 -0 -0 -0 -0 -0 -0 -0 -0 -0 -0 -0 -0 -0 -0 -0 -0 -0 -0 -0 -0 -0 -0 -0 -0 -0 -0 -0 -0 -0 -0 -0 -0 -0 -0 -0 -0 -0 -0 -0 -0 -0 -0 -0 -0 -0 -0 -0 -0 -0 -0 -0 -0 -0 -0 -0
-0 -0 -0 -0 -0 -0 -0 -0 -0 -0 -0 -0 -0 -0 -0 -0 -0 -0 -0 -0 -0 -0 -0 -0 -0 -0 -0 -0 -0 -0 -0 -0 -0 -0 -0 -0 -0 -0 -0 -0 -0 -0 -0 -0 -0 -0 -0 -0 -0 -0 -0 -0 -0 -0 -0 -0 -0 -0 -0 -0 -0 -0 -0 -0 -0 -0 -0 -0 -0 -0 -0 -0 -0 -0 -0 -0 -0 -0 -0 -0 -0 -0 -0 -0 -0 -0
-0 -0 -0 -0 -0 -0 -0 -0 -0 -0 -0 -0 -0 -0 -0 -0 -0 -0 -0 -0 -0 -0 -0 -0 -0 -0 -0 -0 -0 -0 -0 -0 -0 -0 -0 -0 -0 -0 -0 -0 -0 -0 -0 -0 -0 -0 -0 -0 -0 -0 -0 -0 -0 -0 -0 -0 -0 -0 -0 -0 -0 -0 -0 -0 -0 -0 -0 -0 -0 -0 -0 -0 -0 -0 -0 -0 -0 -0 -0 -0 -0 -0 -0 -0 -0 -0
-0 -0 -0 -0 -0 -0 -0 -0 -0 -0 -0 -0 -0 -0 -0 -0 -0 -0 -0 -0 -0 -0 -0 -0 -0 -0 -0 -0 -0 -0 -0 -0 -0 -0 -0 -0 -0 -0 -0 -0 -0 -0 -0 -0 -0 -0 -0 -0 -0 -0 -0 -0 -0 -0 -0 -0 -0 -0 -0 -0 -0 -0 -0 -0 -0 -0 -0 -0 -0 -0 -0 -0 -0 -0 -0 -0 -0 -0 -0 -0 -0 -0 -0 -0 -0 -0
-1 -1 -0 -0 -0 -0 -0 -0 -0 -0 -0 -0 -0 -0 -0 -0 -0 -0 -0 -0 -0 -0 -0 -0 -0 -0 -0 -0 -0 -0 -0 -0 -0 -0 -0 -0 -0 -0 -0 -0 -0 -0 -0 -0 -0 -0 -0 -0 -0 -0 -0 -0 -0 -0 -0 -0 -0 -0 -0 -0 -0 -0 -0 -0 -0 -0 -0 -0 -0 -0 -0 -0 -0 -0 -0 -0 -0 -0 -0 -0 -0 -0 -0 -0 -0 -0
-0 -0 -0 -0 -0 -0 -0 -0 -0 -0 -0 -0 -0 -0 -0 -0 -0 -0 -0 -0 -0 -0 -0 -0 -0 -0 -0 -0 -0 -0 -0 -0 -0 -0 -0 -0 -0 -0 -0 -0 -0 -0 -0 -0 -0 -0 -0 -0 -0 -0 -0 -0 -0 -0 -0 -0 -0 -0 -0 -0 -0 -0 -0 -0 -0 -0 -0 -0 -0 -0 -0 -0 -0 -0 -0 -0 -0 -0 -0 -0 -0 -0 -0 -0 -0 -0
-0 -0 -0 -0 -0 -0 -0 -0 -0 -0 -0 -0 -0 -0 -0 -0 -0 -0 -0 -0 -0 -0 -0 -0 -0 -0 -0 -0 -0 -0 -0 -0 -0 -0 -0 -0 -0 -0 -0 -0 -0 -0 -0 -0 -0 -0 -0 -0 -0 -0 -0 -0 -0 -0 -0 -0 -0 -0 -0 -0 -0 -0 -0 -0 -0 -0 -0 -0 -0 -0 -0 -0 -0 -0 -0 -0 -0 -0 -0 -0 -0 -0 -0 -0 -0 -0
-0 -0 -0 -0 -0 -0 -0 -0 -0 -0 -0 -0 -0 -0 -0 -0 -0 -0 -0 -0 -0 -0 -0 -0 -0 -0 -0 -0 -0 -0 -0 -0 -0 -0 -0 -0 -0 -0 -0 -0 -0 -0 -0 -0 -0 -0 -0 -0 -0 -0 -0 -0 -0 -0 -0 -0 -0 -0 -0 -0 -0 -0 -0 -0 -0 -0 -0 -0 -0 -0 -0 -0 -0 -0 -0 -0 -0 -0 -0 -0 -0 -0 -0 -0 -0 -0
-0 -0 -0 -0 -0 -0 -0 -0 -0 -0 -0 -0 -0 -0 -0 -0 -0 -0 -0 -0 -0 -1 -0 -0 -0 -0 -0 -0 -0 -0 -0 -0 -0 -0 -0 -0 -0 -0 -0 -0 -0 -0 -0 -0 -0 -0 -0 -0 -0 -0 -0 -0 -0 -0 -0 -0 -0 -0 -0 -0 -0 -0 -0 -0 -0 -0 -0 -0 -0 -0 -0 -0 -0 -0 -0 -0 -0 -0 -0 -0 -0 -0 -0 -0 -0 -0
-0 -0 -0 -0 -0 -0 -0 -0 -0 -0 -0 -0 -0 -0 -0 -0 -1 -1 -0 -0 -0 -0 -0 -1 -1 -1 -0 -0 -0 -0 -0 -0 -0 -0 -0 -0 -0 -0 -0 -0 -0 -0 -0 -0 -0 -0 -0 -0 -0 -0 -0 -0 -0 -0 -0 -0 -0 -0 -0 -0 -0 -0 -0 -0 -0 -0 -0 -0 -0 -0 -0 -0 -0 -0 -0 -0 -0 -0 -0 -0 -0 -0 -0 -0 -0 -0
-0 -0 -0 -0 -0 -0 -0 -0 -0 -0 -0 -0 -0 -0 -0 -0 -0 -0 -0 -0 -0 -0 -0 -0 -0 -0 -0 -0 -0 -0 -0 -0 -0 -0 -0 -0 -0 -0 -0 -0 -0 -0 -0 -0 -0 -0 -0 -0 -0 -0 -0 -0 -0 -0 -0 -0 -0 -0 -0 -0 -0 -0 -0 -0 -0 -0 -0 -0 -0 -0 -0 -0 -0 -0 -0 -0 -0 -0 -0 -0 -0 -0 -0 -0 -0 -0
-0 -0 -0 -0 -0 -0 -0 -0 -0 -0 -0 -0 -0 -0 -0 -0 -0 -0 -0 -0 -0 -0 -0 -0 -0 -0 -0 -0 -0 -0 -0 -0 -0 -0 -0 -0 -0 -0 -0 -0 -0 -0 -0 -0 -0 -0 -0 -0 -0 -0 -0 -0 -0 -0 -0 -0 -0 -0 -0 -0 -0 -0 -0 -0 -0 -0 -0 -0 -0 -0 -0 -0 -0 -0 -0 -0 -0 -0 -0 -0 -0 -0 -0 -0 -0 -0
-0 -0 -0 -0 -0 -0 -0 -0 -0 -0 -0 -0 -0 -0 -0 -0 -0 -0 -0 -0 -0 -0 -0 -0 -0 -0 -0 -0 -0 -0 -0 -0 -0 -0 -0 -0 -0 -0 -0 -0 -0 -0 -0 -0 -0 -0 -0 -0 -0 -0 -0 -0 -0 -0 -0 -0 -0 -0 -0 -0 -0 -0 -0 -0 -0 -0 -0 -0 -0 -0 -0 -0 -0 -0 -0 -0 -0 -0 -0 -0 -0 -0 -0 -0 -0 -0
-0 -0 -0 -0 -0 -0 -0 -0 -0 -0 -0 -5 -0 -0 -0 -0 -0 -0 -0 -0 -0 -0 -0 -0 -0 -0 -0 -0 -0 -0 -0 -0 -0 -0 -0 -0 -0 -0 -0 -0 -0 -0 -0 -0 -0 -0 -0 -0 -0 -0 -0 -0 -0 -0 -0 -0 -0 -0 -0 -0 -0 -0 -0 -0 -0 -0 -0 -0 -0 -0 -0 -0 -0 -0 -0 -0 -0 -0 -0 -0 -0 -0 -0 -0 -0 -0
-0 -0 -0 -0 -0 -0 -0 -0 -0 -0 -0 -1 -0 -0 -0 -0 -0 -0 -0 -0 -0 -0 -0 -0 -0 -0 -0 -0 -0 -0 -0 -0 -0 -0 -0 -0 -0 -0 -0 -0 -0 -0 -0 -0 -0 -0 -0 -0 -0 -0 -0 -0 -0 -0 -0 -0 -0 -0 -0 -0 -0 -0 -0 -0 -0 -0 -0 -0 -0 -0 -0 -0 -0 -0 -0 -0 -0 -0 -0 -0 -0 -0 -0 -0 -0 -0
-0 -0 -0 -0 -0 -2 -3 -0 -1 -1 -0 -0 -0 -0 -0 -0 -0 -0 -0 -0 -0 -0 -0 -0 -0 -0 -0 -0 -0 -0 -0 -0 -0 -0 -0 -0 -0 -0 -0 -0 -0 -0 -0 -0 -0 -0 -0 -0 -0 -0 -0 -0 -0 -0 -0 -0 -0 -0 -0 -0 -0 -0 -0 -0 -0 -0 -0 -0 -0 -0 -0 -0 -0 -0 -0 -0 -0 -0 -0 -0 -0 -0 -0 -0 -0 -0
-0 -0 -0 -0 -0 -9 -4 -0 -0 -0 -0 -0 -0 -0 -0 -0 -0 -0 -0 -0 -0 -0 -0 -0 -0 -0 -0 -0 -0 -0 -0 -0 -0 -0 -0 -0 -0 -0 -0 -0 -0 -0 -0 -0 -0 -0 -0 -0 -0 -0 -0 -0 -0 -0 -0 -0 -0 -0 -0 -0 -0 -0 -0 -0 -0 -0 -0 -0 -0 -0 -0 -0 -0 -0 -0 -0 -0 -0 -0 -0 -0 -0 -0 -0 -0 -0
-0 -0 -0 -0 -0 -0 -0 -0 -0 -0 -0 -0 -0 -0 -0 -0 -0 -0 -0 -0 -0 -0 -0 -0 -0 -0 -0 -0 -0 -0 -0 -0 -0 -0 -0 -0 -0 -0 -0 -0 -0 -0 -0 -0 -0 -0 -0 -0 -0 nan -0 -0 -0 -0 -0 -0 -0 -0 -0 -0 -0 -0 -0 -0 -0 -0 -0 -0 -0 -0 -0 -0 -0 -0 -0 -0 -0 -0 -0 -0 -0 -0 -0 -0 -0 -0
-0 -0 -0 -0 -0 -0 -0 -0 -0 -0 -0 -0 -0 -0 -0 -0 -0 -0 -0 -0 -0 -0 -0 -0 -0 -0 -0 -0 -0 -0 -0 -0 -0 -0 -0 -0 -0 -0 -0 -0 -0 -0 -0 -0 -0 -0 -0 -0 -0 -0 -0 -0 -0 -0 -0 -0 -0 -0 -0 -0 -0 -0 -0 -0 -0 -0 -0 -0 -0 -0 -0 -0 -0 -0 -0 -0 -0 -0 -0 -0 -0 -0 -0 -0 -0 -0
-0 -0 -0 -0 -0 -0 -0 -0 -0 -0 -0 -0 -0 -0 -0 -0 -0 -0 -0 -0 -0 -0 -0 -0 -0 -0 -0 -0 -0 -0 -0 -0 -0 -0 -0 -0 -0 -0 -0 -0 -0 -0 -0 -0 -0 -0 -0 -0 -0 -0 -0 nan nan nan -0 -0 -0 -0 -0 -0 -0 -0 -0 -0 -0 -0 -0 -0 -0 -0 -0 -0 -0 -0 -0 -0 -0 -0 -0 -0 -0 -0 -0 -0 -0 -0
-0 -0 -0 -0 -0 -0 -0 -0 -0 -0 -0 -0 -0 -0 -0 -0 -0 -0 -0 -0 -0 -0 -0 -0 -0 -0 -0 -0 -0 -0 -0 -0 -0 -0 -0 -0 -0 -0 -0 -0 -0 -0 -1 -0 -0 -0 -0 -0 -0 -0 nan nan nan nan -0 -0 -0 -0 -0 -0 -0 -0 -0 -0 -0 -0 -0 -0 -0 -0 -0 -0 -0 -0 -0 -0 -0 -0 -0 -0 -0 -0 -0 -0 -0 -1
-0 -0 -0 -0 -0 -0 -0 -0 -0 -0 -0 -0 -0 -0 -0 -0 -0 -0 -0 -0 -0 -0 -0 -0 -0 -0 -0 -0 -0 -0 -0 nan -0 -0 -0 -0 -0 -0 -0 -0 -0 -0 -0 -0 -0 -0 -0 -0 -0 -0 nan nan nan nan nan nan nan nan -0 -0 -0 -0 -0 -0 -0 -0 -0 -0 -0 -0 -0 -0 -0 -0 -0 -0 -0 -0 -0 -0 -0 -0 -0 -1 -1 -1
-0 -0 -0 -0 -0 -0 -0 -0 -0 -0 -0 -0 -0 -0 -0 -0 -0 -0 -0 -0 -0 -0 -0 -0 -0 -0 -0 -0 -0 -0 nan nan nan nan -0 -0 -0 -0 -0 -0 -0 -0 -0 -0 -0 -0 -0 nan nan -0 -0 -0 nan nan nan nan nan nan nan nan nan -0 -0 -0 -0 -0 -0 -0 -0 -0 -0 -0 -0 -0 -0 -0 -0 -0 -0 -0 -0 -0 -1 -1 -1 -0
-0 -0 -0 -0 -0 -0 -0 -0 -0 -0 -0 -0 -0 -0 -0 -0 -0 -0 -0 -0 -0 -0 -0 -0 -0 -0 -0 -0 -0 -0 -0 nan -0 -0 -0 -0 -0 -0 -0 -0 -0 -0 -0 -0 -0 -0 nan -0 -0 -0 -0 -0 -0 -0 nan nan nan nan nan nan nan nan -0 -0 -0 -0 -0 -0 -0 -0 -0 -0 -0 -0 -0 -0 -0 -0 -0 -0 -0 -0 -0 -1 -1 -0
-0 -0 -0 -0 -0 -0 -0 -0 -0 -0 -0 -0 -0 -0 -0 -0 -0 -0 -0 -0 -0 -0 -0 -0 -0 -0 -0 -0 -0 -0 -0 nan -0 -0 -0 -0 -0 -0 -0 -0 -0 -0 -0 -0 -0 -0 -0 -0 -0 -0 -0 -0 -0 -0 -0 nan nan nan nan nan nan nan -0 -0 -0 -0 -0 -0 -0 -0 -0 -0 -0 -0 -0 -0 -0 -0 -0 -0 -0 -0 -0 -1 -1 -0
-0 -0 -0 -0 -0 -0 -0 -0 -0 -0 -0 -0 -0 -0 -0 -0 -0 -0 -0 -0 -0 -0 -0 -0 -0 -0 -0 -0 -0 -0 -0 nan -0 -0 -0 -0 -0 -0 -0 -0 -0 -0 -0 -0 -0 -0 -0 -0 -0 -0 nan -0 -0 -0 nan nan nan -0 -0 nan nan nan nan -0 -0 -0 -0 -0 nan nan -0 -0 -0 -0 -0 -0 -0 -0 -0 -0 -0 -0 -0 -0 -0 -0
-0 -0 -0 -0 -0 -0 -0 -0 -0 -0 -0 -0 -0 -0 -0 -0 -0 -0 -0 -0 -0 -0 -0 -0 -0 -0 -0 nan -0 -0 -0 nan -0 -0 -0 -0 -0 -0 -0 -0 -0 -0 -0 -0 -0 -0 -0 -0 -0 -0 -0 -0 nan nan nan nan nan -0 -0 -0 -0 -0 nan -0 -0 -0 -0 -0 nan nan nan nan nan nan -0 -0 -0 -0 -0 -0 -0 -0 -0 -0 -0 -0
-0 -0 -0 -0 -0 -0 -0 -0 -0 -0 -0 -0 -0 -0 -0 -0 -0 -0 -0 -0 -0 -0 -0 -0 -0 -0 -1 -1 -0 -0 -0 nan -0 -0 -0 -0 -0 -0 -0 -0 -0 -0 -0 -0 -0 -0 -0 -0 -0 -0 -0 -0 -0 -0 nan nan nan -0 -0 -0 -0 -0 -0 -0 -0 -0 -0 -0 nan nan nan nan nan nan -0 -0 -0 -0 -0 -0 -0 -0 -0 -0 -0 -0
-0 -0 -0 -0 -0 -0 -0 -0 -0 -0 -0 nan -0 -0 -0 -0 -0 -0 -0 -0 -0 -0 -0 -0 -0 -0 -0 -0 -5 -5 -2 -0 -0 -0 -0 -3 -0 -0 nan -0 -0 -0 -0 -0 -0 -0 -0 -0 -0 -0 -0 -0 -0 -0 nan -0 -0 -0 -0 -0 -0 -0 nan nan nan -0 -0 -0 -0 -0 nan nan nan nan -0 -0 -0 -0 -0 -0 -0 -0 -0 -0 -0 -0
-0 -0 -0 -0 -0 -0 -0 -0 -0 -0 -0 -0 -0 -0 -0 -0 -0 -0 -0 -0 -0 -0 -0 -0 -0 -0 -0 -0 -10 -10 -9 -5 -6 -6 -7 -7 nan nan -0 -0 -0 -0 -0 -0 -0 -0 -0 -0 -0 -0 -0 -0 -0 -0 -0 -0 -0 -0 -0 -0 -0 nan nan nan nan -0 -0 -0 -0 -0 -0 nan nan nan -0 -0 -3 -3 -1 -0 -0 -0 -0 -0 -0 -0
-0 -0 -0 -0 -0 -0 -0 -0 -0 -0 -0 -0 -0 -0 -0 -0 -0 -0 -0 -0 -0 -0 -0 -0 -0 -0 -8 -14 -2 -2 -3 -9 -14 -14 nan nan nan nan nan -0 -0 -0 -0 -0 -0 -0 nan -0 -0 -0 -0 -0 -0 -0 -0 -0 -0 -0 -0 -0 -0 -0 nan nan nan nan nan nan -0 -0 nan nan nan nan nan nan nan nan -3 -0 -0 -0 -0 -0 -0 -0
-0 -0 -0 -0 -0 -0 -0 -0 -0 -0 -0 -0 -0 -0 -0 -0 -0 -0 -0 -0 -0 -0 -0 -0 -0 -0 -0 -0 -0 -0 -1 -16 -10 -10 nan nan nan nan nan nan nan -0 -0 -0 -0 -0 nan nan nan -0 -0 -0 -0 -0 -0 -0 -0 -0 -0 -0 -0 nan nan nan nan nan nan nan nan nan nan nan nan nan nan -5 -3 -3 -2 -1 -1 -0 -0 -1 -1 -0
-0 -0 -0 -0 -0 -0 -0 -0 -0 -0 -0 -0 -0 -0 -0 -0 -0 -0 -0 -0 -0 -0 -0 -0 -0 -0 -0 -0 -0 -0 -0 -10 -5 -5 -19 nan nan nan nan nan nan -0 -0 -0 -0 nan nan nan nan -0 -0 -0 -0 -0 -0 -0 -0 -0 -0 -0 -0 -0 nan -0 -0 -0 -0 nan nan nan -0 -0 -0 -0 -3 -1 -4 -4 -3 -1 -1 -1 -0 -3 -3 -2
-0 -0 -0 -0 -0 -0 -0 -0 -0 -0 -0 -0 -0 -0 -0 -0 -0 -0 -0 -0 -0 -0 -0 -0 -0 -0 -0 -0 -0 -0 -0 -4 -13 -13 -19 -23 -16 -16 -7 -2 -2 -0 -0 -0 -0 -0 -0 -0 -0 -0 -0 -0 -0 -0 -0 -0 -0 -0 -0 -0 -0 -0 -0 -0 -0 -0 -0 nan nan nan -0 -0 -0 -0 -0 -1 -5 -5 -4 -3 -3 -0 -0 -3 -3 -3
-0 -0 -0 -0 -0 -0 -0 -0 -0 -0 -0 -0 -0 -0 -0 -0 -0 -0 -0 -0 -0 -0 -0 -0 -0 -0 -0 -0 -0 -0 -0 -11 -4 -4 -10 -21 -18 -18 -7 -2 -2 -1 -0 nan nan -0 -0 -0 -0 -0 -0 -0 -0 -0 -0 -0 -0 -0 -0 -0 -0 -0 -0 -0 -0 nan nan nan nan nan nan -0 -0 -0 -2 -4 -6 -6 -5 -2 -2 -0 -0 -3 -3 -3
-0 -0 -0 -0 -0 -0 -0 -0 -0 -0 -0 -0 -0 -0 -0 -0 -0 -0 -0 -0 -0 -0 -0 -0 -0 -0 -0 -0 -0 -0 -0 -0 -4 -4 -5 -5 -18 -18 -10 -4 -4 -0 -0 -0 -0 -0 -0 -0 -0 -0 -0 -0 -0 -0 -0 -0 -0 -0 -0 -0 -0 -0 nan nan nan -0 nan nan nan nan -0 -0 -0 -0 -3 -5 -8 -8 -8 -5 -5 -5 -1 -2 -2 -2
-0 -0 -0 -0 -0 -0 -0 -0 -0 -0 -0 -0 -0 -0 -0 -0 -0 -0 -0 -0 -0 -0 -0 -0 -0 -0 -0 -0 -0 -0 -0 -0 -0 -0 -3 -1 -3 -3 -11 -8 -8 -1 -0 -0 -0 -0 -1 -0 -0 -0 -0 -0 -0 -0 -0 -0 -0 -0 -0 -0 -0 -0 -0 -0 -0 nan nan nan nan nan -0 -4 -3 -3 -2 -5 nan nan -9 -5 -5 -2 -2 -2 -2 -1
-0 -0 -0 -0 -0 -0 -0 -0 -0 -0 -0 -0 -0 -0 -0 -0 -0 -0 -0 -0 -0 -0 -0 -0 -0 -0 -0 -0 -0 -0 -0 -0 -0 -0 -0 -0 -5 -5 -9 -8 -8 -1 -0 -0 -0 -0 -1 -1 -1 -0 nan -0 -0 -0 -0 -0 -0 -0 -0 -0 -0 -0 -0 -0 -0 nan nan nan -0 -0 -0 -2 -1 -1 nan -2 -5 -5 -9 -5 -5 -1 -2 -1 -1 -1
-0 -0 -0 -0 -0 -0 -0 -0 -0 -0 -0 -0 -0 -0 -0 -0 -0 -0 -0 -0 -0 -0 -0 -0 -0 -0 -0 -0 -0 -0 -0 -0 -0 -0 -0 -0 -0 -0 -3 -7 -7 -1 -0 -0 -0 -0 -0 -2 -2 -2 nan -0 -0 -0 -0 -0 -0 -0 -0 -0 -0 -0 nan nan nan nan nan nan -0 -0 -1 -4 -2 -2 -1 -1 -4 -4 -10 -9 -9 -4 -0 -0 -0 -0
-0 -0 -0 -0 -0 -0 -0 -0 -0 -0 -0 -0 -0 -0 -0 -0 -0 -0 -0 -0 -0 -0 -0 -0 -0 -0 -0 -0 -0 -0 -0 -0 -0 -0 -0 -0 -0 -0 -0 -0 -0 -0 -0 -0 -0 -0 -0 -4 -4 -4 -1 -0 -0 -0 -0 -0 -0 -0 -0 -0 -0 -0 -0 nan nan -0 -2 -2 -4 -4 -4 -2 -1 -1 -0 -0 -2 -2 -9 -16 -16 -11 -5 -0 -0 -1
-0 -0 -0 -0 -0 -0 -0 -0 -0 -0 -0 -0 -0 -0 -0 -0 -0 -0 -0 -0 -0 -0 -0 -0 -0 -0 -0 -0 -0 -0 -0 -0 -0 -0 -0 -0 -0 -0 -0 -0 -0 -0 -0 -0 -0 -0 -0 -3 -3 -0 -0 -0 -0 -0 -0 -0 -0 -0 -0 -0 -0 -0 nan nan nan -0 -0 nan -8 -8 -5 nan nan nan nan -1 -2 -2 -5 nan nan -16 -14 -7 -7 nan
-0 -0 -0 -0 -0 -0 -0 -0 -0 -0 -0 -0 -0 -0 -0 -0 -0 -0 -0 -0 -0 -0 -0 -0 -0 -0 -0 -0 -0 -0 -0 -0 -0 -0 -0 -0 -0 -0 -0 -0 -0 -0 -0 -0 -0 -0 -0 -3 -3 -0 -0 -1 nan nan -0 -0 -0 -0 -0 -0 -0 -0 nan nan nan -0 -0 -3 -6 -6 -4 -2 -0 -0 nan -1 -2 -2 nan nan nan nan nan -16 -16 -9
-0 -0 -0 -0 -0 -0 -0 -0 -0 -0 -0 -0 -0 -0 -0 -0 -0 -0 -0 -0 -0 -0 -0 -0 -0 -0 -0 -0 -0 -0 -0 -0 -0 -0 -0 -0 -0 -0 -0 -0 -0 -0 -0 -0 -0 -0 -0 -0 -0 nan -0 -0 -3 -3 -0 -0 -0 -0 -0 -0 -0 -0 nan nan nan -0 -0 -0 -4 -4 -3 -2 -0 -0 -0 nan -2 -2 -3 nan nan nan nan nan nan -8
Wind_Speed
8 8 9 12 12 12 11 13 14 13 12 11 11 11 11 11 12 12 14 15 14 14 13 13 14 16 18 21 23 25 26 26 27 27 27 27 28 28 28 28 28 28 29 29 29 30 30 30 30 30 31 31 31 31 31 31 31 31 31 30 30 30 31 31 31 31 31 31 31 31 31 31 32 32 32 32 33 33 32 32 33 33 33 33 32 32
9 9 9 12 13 13 11 12 13 13 13 13 12 11 12 12 12 11 11 13 13 13 13 13 15 16 18 19 22 24 25 26 26 26 27 27 27 27 28 28 28 29 29 30 30 30 30 30 30 30 31 31 31 31 30 30 30 30 30 30 30 30 30 31 31 31 31 31 31 30 30 30 31 31 31 31 31 31 31 31 32 32 32 32 32 32
9 9 8 10 11 12 11 12 13 13 14 14 13 13 14 14 13 11 10 10 11 12 12 13 14 16 17 18 20 22 24 25 25 26 26 26 27 27 28 28 29 29 30 30 30 30 30 30 30 30 30 30 30 30 30 30 30 30 30 30 30 30 31 31 31 31 31 31 30 30 30 30 30 30 30 30 30 30 29 30 30 30 31 31 31 31
9 9 9 9 10 11 11 12 12 12 12 13 14 14 15 13 11 10 10 11 12 12 13 14 15 15 14 14 16 19 22 24 25 26 26 27 27 28 28 29 29 29 30 30 30 30 30 30 30 30 30 30 30 30 30 31 31 31 30 30 30 31 31 31 31 31 31 31 30 30 29 29 30 30 30 29 29 28 28 28 28 29 29 29 29 29
9 9 9 9 9 10 11 12 12 12 11 11 12 12 13 11 10 10 10 12 13 13 12 13 13 14 13 12 14 18 22 24 25 26 27 27 28 28 29 29 29 29 29 29 29 29 29 29 29 30 30 30 30 30 31 31 31 31 31 31 31 31 32 32 32 31 31 30 30 29 29 29 29 29 29 29 29 29 28 28 28 28 28 28 28 28
9 9 9 9 9 9 9 10 10 10 10 10 10 10 10 10 10 10 11 11 12 12 11 11 11 12 13 13 15 18 21 23 25 26 26 27 27 28 28 28 28 29 29 29 29 29 29 29 29 29 30 30 30 31 31 31 31 31 31 31 32 32 32 32 32 31 31 30 30 30 29 29 29 29 30 30 30 29 29 29 28 28 28 28 28 28
9 8 8 9 9 9 8 9 9 9 9 9 8 8 9 10 11 11 12 11 11 10 10 10 11 11 12 14 16 18 20 22 23 24 25 26 26 27 27 27 28 28 28 28 28 29 29 29 29 29 30 30 30 31 31 31 31 31 32 32 32 32 32 31 31 31 30 30 30 30 30 29 29 29 30 30 30 30 29 30 30 29 29 29 29 29
10 9 9 9 9 9 8 8 8 8 9 9 8 8 9 9 10 11 12 12 11 10 10 10 10 11 11 13 14 15 16 17 18 19 20 21 23 24 25 26 27 27 27 28 28 28 28 29 29 29 30 30 30 31 31 31 31 31 31 31 31 31 31 31 31 30 30 30 30 29 29 29 29 29 29 29 29 29 29 29 30 30 30 30 30 31
11 11 10 10 10 10 9 8 7 7 8 8 9 9 10 10 10 10 10 10 10 10 9 10 10 11 11 12 13 13 14 15 15 15 16 16 17 19 21 23 24 25 26 27 27 28 28 28 29 29 29 30 30 30 30 30 31 31 31 31 31 30 30 30 30 30 30 29 29 29 29 29 29 29 29 28 28 28 28 29 29 30 30 30 31 31
11 11 11 10 9 8 8 8 7 7 8 9 9 9 10 11 11 11 10 10 9 9 9 10 11 11 11 11 11 12 14 15 16 18 19 18 19 20 21 21 21 22 25 26 26 27 28 28 28 29 29 29 29 29 30 30 30 30 29 29 29 29 29 29 29 29 29 29 29 29 29 29 28 28 28 28 28 28 28 28 29 29 30 30 30 30
10 10 10 9 7 6 6 7 7 8 9 9 9 9 9 10 10 11 12 11 10 9 9 10 10 10 11 11 11 11 12 13 14 16 17 19 20 21 21 21 21 22 24 24 25 26 26 27 27 28 28 28 28 28 28 28 28 28 28 28 29 29 29 28 28 28 28 28 29 29 29 29 29 28 28 28 28 28 28 28 29 29 29 29 30 30
9 9 8 7 6 6 6 7 7 8 9 9 10 10 9 9 9 10 11 11 11 11 10 10 10 10 10 10 11 11 11 11 11 11 12 13 14 15 16 16 17 18 20 20 22 23 24 25 26 26 26 26 27 27 27 27 27 27 28 28 28 28 28 28 28 28 28 28 29 29 29 29 29 29 29 29 29 28 28 29 29 29 29 29 29 30
8 6 6 6 6 7 7 8 8 8 8 9 10 10 10 9 9 9 10 11 11 11 11 10 10 10 10 10 10 10 10 11 11 10 10 10 10 10 11 11 12 12 13 14 15 16 20 22 23 24 24 24 25 25 26 26 26 26 27 27 27 27 27 28 28 28 28 29 29 29 29 29 29 29 29 29 29 29 29 29 29 29 30 30 30 30
7 6 6 7 8 8 9 9 10 10 9 9 9 10 9 9 9 9 9 10 10 11 11 11 11 10 9 9 9 9 10 10 10 10 10 10 9 10 10 11 11 11 11 12 12 13 16 17 17 18 21 22 23 23 23 24 25 26 26 27 27 27 28 28 28 29 29 29 29 30 30 30 30 30 30 30 30 30 29 29 29 30 30 30 30 30
7 8 9 9 9 9 9 10 10 10 10 9 9 9 9 9 9 9 10 10 10 10 10 11 11 10 8 7 8 9 10 10 10 10 10 10 10 10 10 11 12 12 11 12 12 13 15 14 14 14 16 18 20 21 22 23 25 26 26 27 28 28 28 29 29 29 29 30 30 30 30 30 30 30 30 30 30 30 30 30 30 30 30 30 30 30
8 8 10 10 10 9 9 9 9 10 10 9 9 9 9 9 9 9 9 10 10 10 10 10 10 10 8 7 8 9 9 10 10 10 11 10 10 10 10 11 12 12 11 11 12 12 12 12 13 13 14 18 21 23 25 25 26 27 28 28 29 29 29 29 30 30 30 30 30 30 30 30 30 30 30 30 30 30 30 30 30 30 30 30 30 30
8 9 9 10 10 10 9 9 9 10 9 9 9 9 9 9 9 9 9 9 9 8 8 8 9 9 8 7 7 8 9 9 10 10 11 11 11 10 10 11 12 12 12 11 11 11 11 11 12 12 13 17 21 24 26 26 27 28 28 29 29 29 29 30 30 30 30 30 30 30 30 30 30 30 30 30 30 30 30 30 30 30 30 30 30 30
8 9 9 10 10 10 9 9 9 9 9 9 9 9 9 9 9 9 9 9 8 8 8 8 8 8 8 8 7 7 9 10 10 10 11 11 11 10 10 11 11 12 12 12 11 11 11 11 11 12 14 20 23 25 27 27 28 28 29 29 29 29 29 29 30 30 30 30 30 30 30 30 30 30 30 30 30 30 30 30 30 30 30 30 30 30
9 9 10 10 10 9 9 9 8 8 8 8 8 9 10 10 10 9 9 8 8 8 9 9 9 9 9 9 9 9 10 10 10 10 11 11 11 10 10 10 11 12 12 12 11 11 11 11 13 16 19 23 25 26 27 27 28 28 29 29 29 29 30 30 30 30 30 30 30 30 30 30 30 30 31 31 31 30 30 30 30 30 30 30 30 31
10 10 9 9 9 9 9 9 8 8 9 9 10 10 11 10 10 9 8 8 8 8 9 9 10 10 9 10 11 11 10 10 10 10 11 11 11 11 10 10 11 12 12 11 11 11 11 11 13 15 20 22 24 26 27 28 28 29 29 29 30 30 30 30 30 30 30 31 30 30 30 30 30 30 30 30 30 30 31 31 31 31 31 31 31 31
10 10 10 9 9 9 8 8 9 10 11 12 11 11 10 9 9 8 8 8 9 10 10 10 10 10 9 10 11 11 11 10 10 9 9 9 10 9 9 10 11 12 12 11 11 10 11 11 11 12 16 20 24 26 27 28 29 29 29 30 30 30 30 30 30 30 30 30 30 30 30 30 30 30 30 30 30 30 30 31 31 31 31 31 31 32
10 10 11 11 11 10 9 10 12 13 14 13 11 9 8 8 8 9 10 10 10 10 10 10 10 10 10 11 12 12 11 10 9 9 7 9 10 10 9 9 10 11 12 11 11 10 11 11 11 13 16 21 25 27 28 29 29 29 29 29 29 29 29 29 29 29 29 29 29 30 30 30 30 30 30 30 30 30 31 31 31 31 31 32 32 32
11 11 11 11 11 11 11 11 12 12 11 10 9 8 7 8 9 10 11 11 11 11 11 10 10 10 11 11 11 11 10 9 9 8 7 9 10 10 9 9 10 11 11 11 11 11 11 11 12 13 17 22 25 27 28 28 29 29 29 29 29 28 28 28 28 29 29 29 29 29 29 29 30 30 30 30 30 31 31 31 31 31 32 32 32 32
11 11 11 11 10 10 10 10 10 9 8 9 9 9 9 10 10 11 11 11 11 10 10 10 10 10 10 11 11 10 9 9 8 7 6 8 9 10 9 9 10 11 11 11 11 11 12 12 12 12 14 20 23 26 27 27 27 27 27 27 27 27 27 28 28 28 28 29 29 29 29 30 30 30 30 30 31 31 31 31 31 32 32 32 32 32
11 11 11 11 12 12 12 12 12 12 11 11 11 11 11 12 12 12 11 10 10 10 9 10 10 10 9 10 10 9 9 8 8 7 6 7 8 10 9 9 10 11 11 11 11 11 12 12 12 12 13 16 20 24 25 26 26 26 26 26 26 27 27 27 28 28 28 29 29 29 30 30 30 30 30 31 31 31 31 31 31 32 32 32 32 32
16 16 16 18 19 21 22 22 21 21 20 17 14 12 11 11 11 11 10 9 9 9 9 10 10 10 9 8 8 8 8 8 7 7 7 7 8 9 9 8 9 10 11 11 11 11 12 12 13 13 12 14 17 20 22 23 24 25 25 26 26 27 27 27 28 28 29 29 29 29 30 30 30 30 30 31 31 31 31 31 31 32 32 32 32 32
22 23 24 24 24 24 24 24 24 25 25 22 19 16 13 11 10 10 10 9 8 8 9 9 10 10 9 9 8 8 8 8 7 7 7 8 8 9 8 8 9 10 12 11 11 11 12 13 13 12 12 12 13 15 19 21 23 24 25 26 26 27 27 28 28 29 29 29 29 29 29 29 30 30 30 30 31 31 31 31 31 32 32 31 28 27
22 22 21 21 21 21 22 22 22 23 22 22 22 20 15 11 10 10 10 9 8 8 9 9 9 9 9 9 9 9 9 8 7 7 7 7 7 7 8 8 9 10 11 10 11 11 12 12 12 12 12 11 11 13 16 19 21 23 24 25 26 27 27 27 28 28 28 28 28 28 28 29 29 29 29 30 30 30 31 31 31 31 29 26 21 17
18 18 18 18 19 20 20 20 20 20 20 20 20 18 14 10 9 9 9 8 8 9 9 9 9 9 9 9 9 9 9 9 8 7 7 6 7 7 8 8 9 9 9 10 10 10 10 9 9 10 10 11 12 12 13 16 18 19 20 23 24 25 25 26 26 26 27 27 27 27 28 28 28 29 29 29 29 30 30 31 31 28 23 19 16 14
13 14 15 16 16 16 16 15 15 16 17 18 18 16 13 9 8 8 8 8 8 8 9 9 9 9 9 9 9 9 8 8 7 7 7 6 6 7 8 8 9 8 8 8 8 8 8 8 8 8 10 12 12 11 11 12 13 13 14 17 19 20 22 23 24 25 25 26 26 27 27 28 28 28 28 28 29 29 30 31 29 24 17 14 13 13
12 12 12 12 12 12 12 11 11 12 13 14 14 13 11 9 8 8 8 8 8 8 9 9 9 9 9 8 7 7 6 7 7 8 7 6 6 7 8 9 9 8 7 7 7 8 9 8 7 7 9 11 11 12 11 12 11 11 11 12 13 15 18 21 22 23 23 24 25 26 26 27 27 27 28 28 28 29 29 30 28 23 15 13 13 13
11 10 10 10 10 9 9 9 9 9 9 10 10 10 9 9 8 8 7 7 7 8 8 9 9 9 9 8 8 7 7 7 8 9 8 6 6 7 8 8 9 9 8 7 7 8 8 8 8 8 9 10 11 11 12 12 11 11 11 11 12 13 16 18 19 19 19 21 22 24 25 25 26 27 27 27 28 28 29 30 28 23 15 13 13 13
10 9 9 9 9 8 8 8 8 8 8 8 8 8 8 8 8 8 7 7 7 7 8 8 9 9 9 9 9 9 8 9 10 10 10 7 6 6 7 8 9 9 8 8 8 8 8 9 9 10 9 10 10 10 11 12 12 11 11 11 11 12 14 14 15 15 15 17 18 19 21 23 24 25 26 26 27 27 28 29 28 25 19 15 13 13
10 10 9 9 9 8 8 8 8 8 8 8 8 8 8 8 8 8 8 7 7 7 8 8 8 9 9 9 9 10 10 10 11 11 10 8 6 6 8 9 9 9 9 8 8 8 8 10 10 10 9 10 10 10 10 11 11 11 11 11 11 11 12 12 12 12 13 13 13 14 16 17 19 20 22 23 24 25 26 27 28 27 25 19 15 13
9 9 9 9 8 8 8 9 9 8 8 8 8 8 8 8 8 8 8 8 8 8 8 8 8 9 9 9 9 10 11 11 12 12 11 9 7 7 8 8 9 9 9 9 8 8 8 10 11 11 10 10 10 10 9 10 10 11 10 11 11 11 11 11 11 12 12 12 12 12 12 12 13 15 16 19 21 23 25 26 28 28 29 26 22 18
9 9 9 8 8 8 8 9 9 9 9 8 8 8 8 8 8 8 8 9 9 9 9 9 9 9 9 9 10 11 11 12 12 13 12 10 8 7 7 8 8 9 9 9 9 9 9 10 11 12 12 12 11 10 9 9 10 10 10 11 11 11 11 11 11 11 12 12 12 12 11 11 12 13 14 18 21 24 25 27 28 29 29 29 28 25
8 8 8 8 8 8 8 8 8 8 8 8 8 8 9 9 9 9 9 9 10 10 10 11 11 11 11 11 11 11 12 12 13 13 14 11 10 9 8 8 9 9 9 9 9 9 10 10 11 12 11 11 10 10 9 10 10 11 11 11 11 11 11 11 11 11 11 12 12 12 12 12 13 13 15 19 21 22 24 25 26 26 28 29 29 29
8 8 8 8 8 8 8 8 8 8 8 8 9 9 10 10 11 11 10 11 11 11 11 10 10 12 15 15 14 14 14 14 15 16 16 13 11 10 9 9 10 10 9 9 9 10 10 10 11 11 10 10 11 11 12 11 11 11 11 11 11 11 12 12 11 11 11 12 13 14 14 14 13 13 14 15 15 15 15 16 18 20 23 24 25 27
8 8 8 8 8 8 8 8 8 8 9 9 9 10 10 11 12 12 11 11 11 11 11 11 11 12 13 15 15 16 16 16 16 16 15 13 12 10 10 10 10 10 10 10 9 9 10 10 10 11 11 11 11 12 12 11 11 12 12 12 12 11 11 11 11 11 11 12 13 14 14 13 13 12 12 12 12 12 12 13 14 15 16 15 17 20
8 8 8 8 8 8 8 8 9 9 9 9 10 11 11 10 10 10 10 10 10 10 12 12 12 12 12 13 14 14 15 13 13 13 13 12 11 10 10 10 10 10 10 10 10 9 10 10 11 11 12 11 11 11 11 11 12 12 13 11 10 10 11 11 11 11 11 11 12 12 12 12 12 12 13 12 12 12 12 12 12 13 14 12 12 12
9 8 8 8 8 8 8 9 9 9 9 10 10 10 9 9 9 9 9 9 9 9 10 10 11 11 12 12 12 13 14 13 13 13 12 11 11 11 10 10 10 10 10 10 10 10 10 10 11 12 12 12 12 13 13 13 14 14 14 12 11 12 12 13 12 12 11 11 11 12 13 14 14 14 13 13 13 12 12 12 13 14 13 12 11 10
9 9 8 8 8 8 8 9 9 10 10 10 9 9 9 8 8 9 9 9 9 9 9 9 9 10 11 11 12 12 12 12 12 12 11 12 12 11 10 10 9 9 10 10 10 11 11 11 11 11 11 11 11 12 12 13 13 14 13 13 13 13 13 13 11 10 10 11 11 12 14 14 14 13 13 13 13 12 12 13 14 15 15 13 11 11
8 8 8 8 8 8 9 10 10 9 9 9 9 9 8 8 8 9 9 9 9 10 9 9 9 10 11 11 11 11 11 11 11 12 12 11 11 11 11 11 11 10 10 10 10 11 11 11 11 11 11 11 11 12 13 13 13 13 13 13 13 12 9 9 9 10 10 11 11 12 12 13 13 13 13 13 12 12 12 14 15 16 15 13 12 11
8 8 8 8 8 8 8 8 8 8 8 9 9 9 9 9 9 9 9 9 9 10 9 9 9 9 10 11 11 11 11 11 12 12 12 12 12 11 11 12 12 11 11 10 10 10 10 11 11 11 11 11 11 12 12 12 13 13 13 13 13 12 11 10 11 12 12 12 12 12 12 13 13 13 13 13 12 12 12 11 11 12 13 12 12 11
8 8 8 8 8 8 8 8 9 9 9 9 9 9 9 9 9 9 9 9 10 10 9 9 8 8 9 10 10 10 10 11 11 10 10 12 13 13 12 11 10 10 10 10 10 9 9 10 11 11 10 10 11 12 12 12 13 13 13 13 13 13 12 12 12 12 12 12 12 13 13 14 14 14 13 13 13 12 11 11 11 11 11 11 11 11
8 8 8 8 8 8 9 9 9 9 9 9 9 9 9 9 9 9 9 9 10 10 10 9 8 8 9 10 10 10 10 10 10 10 9 10 10 10 10 9 9 9 9 9 10 10 10 10 11 11 10 10 11 12 12 12 12 12 12 13 12 12 12 12 12 12 12 12 13 13 14 15 14 13 13 14 13 13 11 10 10 10 11 10 10 11
8 9 9 8 8 8 9 9 9 9 9 10 10 9 9 9 9 9 9 9 9 9 9 9 9 9 10 10 10 10 10 11 11 11 10 10 10 10 9 9 9 9 9 9 10 11 11 11 11 11 11 11 11 12 12 12 12 12 12 12 12 11 11 11 11 11 12 12 12 13 15 15 14 14 14 14 14 13 11 10 10 9 10 10 10 11
9 9 9 9 9 9 9 9 9 9 10 10 10 10 9 9 10 10 9 10 9 9 9 9 9 10 10 10 10 10 11 11 11 11 11 10 10 10 9 9 9 9 9 10 11 12 12 12 12 12 12 11 11 11 12 12 12 12 11 11 11 11 11 12 11 11 11 12 13 14 14 13 13 14 15 14 14 13 12 11 10 9 8 9 10 10
8 9 9 9 9 9 9 9 9 9 10 10 10 10 10 10 11 11 10 9 9 9 9 9 10 10 10 10 11 11 11 11 11 10 10 10 10 9 9 9 9 9 9 10 10 11 11 11 12 12 12 11 11 12 12 12 11 11 11 11 11 11 11 11 12 12 11 12 13 14 13 12 12 13 13 14 14 14 14 13 11 10 8 8 9 9
8 8 9 9 9 9 9 9 10 10 10 11 11 11 10 10 10 10 9 9 9 9 9 9 10 10 10 11 11 11 11 11 11 10 10 10 9 9 9 9 9 9 9 9 9 9 9 8 9 10 11 11 12 11 11 11 11 11 11 10 10 10 11 11 11 12 12 12 13 13 13 13 12 12 12 12 14 15 15 14 13 12 10 10 10 10
9 8 8 9 9 9 9 9 10 10 10 10 11 11 11 10 10 10 9 9 9 9 9 9 10 10 11 11 11 11 11 11 11 11 10 10 9 9 9 9 9 9 9 9 9 9 8 8 7 7 8 9 10 10 9 10 10 10 10 10 10 10 10 10 11 12 12 12 12 12 12 12 12 11 11 11 12 13 14 14 15 14 13 12 12 12
Wind_Direction
300 303 304 303 300 296 293 294 295 295 296 296 297 298 299 299 298 298 298 297 296 295 294 293 291 291 290 289 289 290 291 292 293 294 295 294 294 293 293 292 292 292 292 292 292 292 292 292 292 292 292 292 291 291 291 290 289 289 288 287 286 286 285 285 285 284 284 283 283 282 281 280 280 279 278 277 276 275 275 274 273 272 271 270 269 268
301 301 299 298 296 295 293 296 298 298 299 300 300 300 300 300 299 298 297 295 294 294 293 292 291 290 289 289 291 292 293 294 294 294 294 293 293 293 293 293 293 293 293 293 293 293 293 293 292 291 291 290 290 289 289 288 287 286 285 284 284 283 283 284 284 284 284 283 283 282 282 281 280 280 278 277 276 275 275 275 274 274 273 272 271 271
301 298 296 296 296 296 297 300 300 299 298 298 299 299 299 299 298 297 296 295 294 293 291 291 290 290 290 291 292 294 294 294 294 293 293 293 293 293 293 294 294 293 293 293 293 292 292 291 290 289 289 288 288 287 287 286 285 284 284 283 283 283 283 284 284 284 284 283 283 283 283 282 282 281 280 278 277 276 275 275 274 274 273 273 272 272
297 296 298 298 297 296 296 299 299 298 296 296 297 297 298 297 296 296 296 295 293 292 289 288 289 290 291 292 293 294 294 294 294 294 294 294 294 294 294 294 294 293 293 292 291 291 290 289 288 288 287 287 287 286 286 285 285 284 284 283 283 284 284 285 285 285 284 284 283 283 283 283 283 282 282 281 279 278 276 275 274 274 273 273 273 274
294 295 299 298 296 294 294 294 295 295 294 294 295 297 298 297 296 295 293 292 290 289 288 289 290 292 293 293 294 294 295 295 295 295 295 295 295 295 294 293 293 292 291 290 290 289 288 288 288 287 287 287 287 286 286 285 285 285 284 284 285 285 286 286 286 285 285 285 284 284 284 284 284 284 284 283 282 280 278 276 275 274 273 273 273 273
292 293 295 294 293 292 293 292 292 293 293 293 295 297 298 296 294 292 290 289 289 289 290 292 293 294 294 294 296 297 297 297 297 296 296 295 295 294 293 292 291 291 290 290 290 289 289 289 289 288 288 288 287 287 286 286 286 285 285 286 286 286 286 287 287 286 286 286 286 285 285 285 285 285 285 284 284 283 281 280 278 276 275 274 274 273
290 288 289 288 288 287 287 289 292 295 297 298 298 297 293 292 290 290 289 289 291 292 293 294 294 295 296 298 299 299 299 298 297 296 295 294 293 293 292 291 291 291 291 291 291 290 290 290 289 288 288 287 287 287 286 286 286 286 286 287 287 287 288 288 288 288 288 287 287 286 286 285 285 284 284 283 283 283 282 282 280 279 278 277 275 274
290 288 285 285 286 286 285 287 293 298 300 300 299 296 291 289 288 289 290 291 293 295 297 298 298 299 299 301 301 300 299 298 297 295 294 293 293 292 292 292 292 292 292 292 291 291 290 290 289 288 288 288 287 287 287 287 287 288 288 288 288 289 289 289 289 289 288 288 287 287 286 285 284 283 282 281 281 281 281 281 280 279 278 277 276 275
287 288 285 284 285 288 290 291 293 295 294 293 293 294 294 294 293 292 292 294 297 301 303 303 303 302 301 302 301 299 297 295 294 293 293 293 293 292 292 292 292 292 292 292 291 291 290 290 289 289 289 288 288 288 288 288 288 288 289 289 289 289 289 289 289 288 288 287 287 286 285 284 283 282 281 280 280 279 279 279 278 277 277 276 275 274
281 282 283 283 284 287 291 293 294 291 286 286 288 291 295 297 298 299 300 301 303 306 305 304 303 302 301 300 298 296 294 292 291 291 291 292 292 292 293 293 292 292 292 292 291 291 290 290 290 290 289 289 289 289 289 289 289 289 288 288 288 288 288 288 287 287 287 286 286 285 284 283 282 281 280 280 279 278 277 277 276 275 275 274 274 273
279 279 281 284 285 285 283 287 290 292 291 290 290 290 291 296 301 305 306 307 307 306 304 301 300 300 300 299 297 295 293 292 291 291 291 292 292 292 293 292 292 292 292 292 292 292 291 291 291 291 290 290 289 289 289 289 288 288 287 287 287 287 287 286 286 286 286 285 285 284 283 282 281 280 279 278 277 276 275 275 274 273 273 272 272 271
281 283 284 287 290 290 286 288 290 294 298 297 296 295 295 299 304 307 307 307 307 306 303 299 296 295 296 297 296 296 294 292 293 293 293 293 293 294 294 293 293 293 293 293 293 293 292 292 292 291 290 290 289 289 288 288 287 287 287 286 286 286 286 286 285 285 284 284 283 282 281 280 279 279 278 277 276 275 274 273 272 271 271 270 270 269
283 287 290 292 294 295 297 299 299 300 301 300 299 300 302 306 308 307 304 303 303 303 301 297 295 293 292 293 294 294 294 293 293 293 295 295 296 297 297 296 296 296 296 295 294 293 293 293 292 291 290 289 289 288 288 287 287 287 286 286 286 286 285 285 284 284 284 283 282 281 280 279 279 278 277 276 275 274 273 272 271 270 270 269 268 267
291 296 297 298 299 300 301 302 301 300 300 299 299 301 304 307 308 306 302 299 299 298 297 295 294 294 293 293 293 293 294 294 294 295 295 296 298 300 300 298 297 296 296 295 293 293 293 293 292 290 289 289 288 288 287 287 287 287 287 286 286 286 286 285 285 284 284 283 282 282 281 280 279 279 278 277 276 274 273 272 271 270 269 268 267 266
302 304 303 302 301 300 300 299 298 297 297 299 301 302 304 305 304 303 300 298 297 297 296 294 293 292 292 294 296 296 296 296 296 296 296 296 297 300 301 298 296 294 294 292 291 291 292 292 290 289 289 288 288 288 288 288 288 288 287 287 287 287 286 286 286 285 285 284 284 283 282 281 281 280 279 277 276 275 274 273 271 270 269 268 267 266
306 304 301 299 297 296 295 295 295 296 298 300 302 303 303 302 302 300 297 296 296 297 296 297 297 296 293 294 297 299 299 298 297 297 298 297 299 300 301 298 295 292 291 290 290 291 292 290 288 287 288 288 288 288 289 288 288 288 288 288 288 288 287 287 287 286 286 285 284 284 283 282 281 280 279 278 277 276 275 274 273 271 270 269 268 267
302 299 296 295 294 294 294 294 295 297 300 301 301 301 300 299 298 297 294 294 295 296 296 300 302 303 302 301 301 301 302 300 299 298 298 297 297 299 299 295 292 290 290 290 290 290 290 289 288 287 287 288 289 289 289 289 289 289 289 288 288 288 288 287 287 286 286 285 285 284 284 283 282 281 280 279 278 277 276 275 274 273 272 271 270 268
294 293 292 292 292 294 297 298 298 298 299 299 299 298 297 295 294 293 292 292 293 295 297 299 300 301 303 303 303 304 306 304 302 300 298 295 295 296 297 292 290 288 289 289 289 288 288 288 288 288 288 289 289 290 290 290 290 290 289 289 289 289 288 288 287 287 286 286 285 285 285 284 283 283 282 281 280 279 277 276 275 274 273 272 271 270
291 292 292 293 295 296 297 297 297 297 298 299 300 299 296 294 292 290 289 290 292 295 299 299 298 296 296 295 298 303 308 306 303 299 296 294 294 295 296 292 289 287 287 288 289 290 290 289 288 288 289 289 289 290 290 290 290 290 290 290 290 290 289 289 289 288 288 287 286 286 285 284 284 283 282 281 280 279 278 277 276 275 274 273 271 270
291 292 293 294 295 294 292 291 293 295 297 299 298 297 294 292 291 290 290 293 296 297 298 296 295 293 293 293 296 300 306 305 300 295 292 291 292 294 296 293 290 288 287 288 290 292 291 290 289 288 289 289 290 290 291 291 291 291 291 291 291 291 290 290 289 288 287 286 286 285 284 283 282 282 281 280 279 278 277 277 276 275 274 273 271 270
292 291 290 290 290 290 288 290 292 295 297 298 296 292 288 289 291 294 298 301 301 299 296 292 291 292 294 293 295 298 303 301 297 293 290 290 291 292 295 293 291 289 289 290 292 292 291 290 289 289 290 291 291 292 292 292 292 292 291 291 291 290 289 288 287 287 286 285 285 284 283 282 282 281 280 279 278 277 276 275 274 273 272 271 270 269
290 289 288 287 286 286 288 291 293 295 296 294 291 288 289 297 301 303 305 304 300 297 294 291 290 291 292 291 291 293 297 294 292 290 292 290 290 291 294 293 292 290 290 292 293 293 292 291 291 291 292 293 293 293 292 292 291 291 291 290 290 289 289 288 288 287 286 286 285 284 283 282 281 281 280 279 278 277 276 275 273 272 271 270 269 268
287 286 288 287 287 288 290 291 292 291 290 287 286 289 297 303 304 303 303 299 296 293 291 289 288 287 286 285 286 289 291 290 289 289 290 289 290 293 297 296 293 291 290 293 296 296 295 294 294 294 294 293 292 292 291 291 290 290 290 290 290 290 290 290 289 289 288 288 287 286 285 284 283 282 281 280 279 278 277 276 274 273 272 271 269 268
285 286 288 288 288 287 287 286 285 285 285 287 291 296 299 299 298 297 295 293 290 289 288 287 286 284 283 284 286 288 291 292 293 291 288 286 288 292 297 297 295 292 292 295 298 299 299 297 295 294 293 291 291 290 290 290 290 290 290 290 291 291 291 290 290 290 289 289 288 287 287 286 285 284 283 282 281 280 279 278 277 276 274 273 272 270
286 286 287 287 286 285 284 285 287 291 295 298 300 300 299 298 296 293 290 288 286 286 286 286 287 287 289 291 292 292 293 295 294 292 288 286 288 291 295 297 296 294 294 297 300 301 299 296 294 292 291 290 290 290 290 291 291 291 291 291 291 291 291 290 290 290 289 288 288 287 287 287 286 285 284 283 282 281 281 279 278 277 276 275 274 273
286 286 287 287 288 288 290 292 294 297 300 300 300 300 300 299 297 294 290 287 287 288 290 290 290 291 294 295 294 294 295 296 295 291 287 287 288 291 294 297 297 296 296 298 300 299 297 295 294 293 292 291 290 290 291 291 292 292 292 292 292 292 291 290 289 289 288 287 286 285 285 284 283 282 282 281 280 280 279 278 277 277 276 275 274 273
288 287 288 289 290 292 294 296 298 299 300 299 299 299 299 299 297 293 289 290 292 294 294 294 294 294 295 295 294 294 297 298 295 290 287 287 288 291 295 299 300 299 298 298 298 297 295 294 293 293 292 290 290 290 292 293 294 294 295 294 293 292 291 289 288 287 286 285 284 283 282 281 280 280 279 278 278 277 277 276 276 275 275 274 274 272
288 288 289 291 294 296 298 299 300 300 301 300 300 300 299 298 294 291 290 293 296 296 293 292 293 295 296 296 295 296 297 295 293 291 292 289 288 290 296 300 301 300 300 298 296 294 293 291 290 290 290 291 292 293 295 296 296 296 295 293 292 291 289 288 286 285 285 284 283 282 281 281 280 279 279 278 278 277 277 276 276 276 275 274 272 269
290 291 294 297 300 302 303 302 302 301 301 300 299 299 298 294 289 288 290 294 295 293 290 290 291 292 294 295 296 295 293 291 292 296 302 296 290 290 296 300 301 301 301 299 297 294 289 287 288 291 293 295 296 297 298 298 297 295 293 291 290 289 287 286 286 285 285 284 284 283 283 283 282 282 281 280 280 279 278 278 278 277 276 273 270 268
299 302 303 305 305 305 304 303 301 300 298 297 297 296 294 289 284 284 287 290 290 289 288 289 290 291 293 295 295 293 290 290 297 306 311 301 294 292 298 299 300 302 304 304 302 299 293 290 290 293 297 299 299 299 298 297 295 293 291 290 289 287 286 286 286 286 285 285 285 285 285 284 284 283 283 282 281 281 280 279 279 278 276 273 270 267
310 310 308 307 306 304 302 300 298 296 296 296 295 294 291 287 284 283 285 286 286 285 286 288 289 290 292 294 294 292 289 294 303 310 312 300 293 294 300 299 299 300 303 304 304 303 301 299 298 298 300 300 299 297 296 295 294 293 292 291 289 287 287 286 287 287 286 286 286 286 285 285 284 284 283 282 282 281 281 280 280 279 276 272 270 268
310 308 305 304 303 301 299 297 296 295 295 295 295 293 290 288 286 284 284 283 282 282 283 285 287 287 288 285 284 285 287 293 300 304 306 297 292 293 297 296 297 298 299 297 295 295 299 302 304 305 303 300 297 296 295 295 294 293 293 291 290 288 288 288 288 288 287 287 286 286 286 285 284 283 283 282 281 281 281 280 280 279 276 272 270 268
306 303 302 301 300 299 297 296 295 295 295 295 294 293 292 290 288 286 284 282 280 280 281 283 285 285 284 281 280 279 282 286 293 298 302 297 293 293 295 295 295 296 297 293 289 286 287 293 299 302 301 298 296 295 296 295 294 293 292 291 290 290 290 291 290 289 289 288 288 287 286 285 284 283 282 281 280 280 280 279 278 277 275 272 269 267
303 301 301 300 299 297 297 296 297 297 297 296 295 294 294 292 291 289 287 283 281 279 278 279 281 282 283 282 280 279 280 283 290 296 302 297 293 291 294 293 294 295 296 294 290 288 284 287 292 297 299 298 296 294 294 294 294 293 292 291 291 292 293 293 293 291 290 290 288 287 286 285 284 282 281 280 279 278 278 278 277 276 274 272 270 267
301 300 300 299 299 299 299 300 300 299 298 297 296 296 295 294 293 292 289 286 283 280 277 275 275 275 277 278 279 280 281 285 291 296 298 294 290 289 291 291 292 294 294 292 292 291 289 289 291 294 297 298 296 294 292 293 294 294 293 292 292 292 293 293 293 292 291 290 288 286 285 285 284 282 281 279 278 277 277 277 277 276 275 273 271 269
299 299 299 300 301 301 302 302 302 301 299 298 297 297 296 296 295 293 291 288 286 283 280 277 273 270 269 270 272 275 279 284 289 291 291 288 286 286 287 287 289 290 290 289 290 290 290 291 292 293 294 295 296 296 295 296 296 296 295 294 293 292 291 292 291 291 290 289 287 286 285 285 285 283 281 280 280 279 279 278 278 277 276 274 272 270
298 298 300 302 303 304 304 303 302 301 301 300 300 299 299 297 296 294 292 289 286 284 282 278 275 270 267 266 266 268 273 279 283 284 284 282 281 280 280 282 284 285 284 285 287 289 290 291 292 293 292 291 292 296 300 302 301 299 296 296 295 294 292 291 290 289 288 287 287 287 287 287 286 285 284 282 282 281 280 279 278 276 275 273 272 270
299 300 302 303 305 305 304 303 303 302 302 301 301 301 299 297 295 293 291 288 286 284 282 280 278 275 273 271 269 268 270 273 275 277 277 276 275 274 275 278 279 280 278 279 281 284 286 288 291 292 292 290 290 292 296 300 301 300 298 298 296 294 292 291 290 289 288 288 288 287 287 287 286 285 284 284 283 282 281 279 277 275 274 273 271 269
301 302 303 305 305 305 304 303 302 302 301 301 300 298 296 294 293 291 289 288 286 285 285 285 284 282 279 277 275 274 273 273 272 272 272 270 269 268 270 273 276 277 276 275 275 277 278 281 284 287 290 291 292 292 293 294 296 297 299 299 296 292 290 291 291 291 289 288 288 287 286 285 285 284 284 284 284 284 282 281 279 278 276 275 272 269
302 303 303 304 305 304 303 301 300 300 300 298 297 295 293 292 291 290 289 289 290 290 290 288 287 285 284 283 282 281 279 277 274 272 270 265 262 261 263 268 272 275 276 274 273 271 272 274 277 280 283 286 289 291 293 293 293 295 299 298 296 294 293 294 293 291 288 285 284 285 286 287 287 286 285 285 284 283 282 282 281 280 279 276 274 272
303 303 303 304 304 302 299 299 298 298 298 297 295 294 292 292 292 293 294 295 295 294 293 292 291 290 289 288 287 285 284 280 277 274 270 264 259 257 259 263 267 271 273 273 272 271 269 272 275 277 279 282 284 287 288 289 291 293 294 292 290 291 293 292 291 289 287 285 285 286 288 290 290 289 286 284 283 281 279 279 279 279 278 274 270 268
303 302 303 304 304 302 300 299 298 297 296 294 293 292 292 293 294 295 296 297 297 297 297 297 297 296 296 294 291 289 286 283 281 278 275 269 263 260 259 261 263 267 271 273 273 272 271 272 274 277 279 282 284 286 286 287 288 290 289 288 289 291 292 289 287 287 288 290 291 291 291 290 289 288 287 285 283 281 279 276 276 275 275 271 267 263
303 303 303 303 302 301 300 300 299 298 297 295 293 292 293 293 294 294 295 295 296 297 298 297 297 296 296 297 296 295 293 289 288 286 285 280 274 269 265 264 264 265 268 271 273 274 274 275 276 277 279 281 281 282 284 287 289 289 287 287 290 293 293 292 293 294 294 293 292 291 290 289 289 289 289 288 285 283 280 276 274 271 269 268 266 262
302 302 302 301 301 301 302 301 301 300 298 297 295 295 294 295 295 295 295 294 295 296 297 297 296 294 293 293 296 298 299 298 296 294 291 287 282 276 271 268 267 265 265 268 273 277 281 280 279 278 279 280 280 281 282 285 286 287 286 285 285 284 282 288 294 298 297 294 292 291 291 292 292 293 292 289 286 283 280 277 274 271 268 266 265 263
302 302 301 302 303 304 303 302 301 300 299 297 295 295 296 297 297 296 296 295 295 296 296 297 296 294 291 293 296 299 301 301 301 299 295 291 287 284 279 274 271 269 267 267 269 274 279 281 282 283 283 281 280 279 280 282 283 283 283 283 282 281 279 285 290 294 294 294 294 294 295 296 297 296 294 292 290 287 285 282 279 277 275 272 269 267
302 303 303 303 304 303 302 301 301 300 298 297 296 296 297 298 298 297 295 295 294 294 294 294 294 292 292 295 297 299 299 300 301 301 300 298 296 293 287 281 276 273 271 270 270 271 272 275 279 282 284 282 279 276 275 277 279 281 282 284 285 286 287 288 290 291 292 294 295 296 298 299 299 297 295 295 294 293 290 285 281 280 279 277 275 273
304 304 304 304 303 302 301 301 301 301 300 299 298 298 298 300 299 298 296 295 294 293 294 294 292 290 291 293 295 296 297 298 300 301 302 301 300 299 295 290 284 280 277 276 276 275 273 272 272 275 278 279 279 278 277 277 278 280 282 286 289 291 291 291 291 292 293 293 295 297 301 302 301 299 296 297 297 296 294 290 285 280 278 278 278 277
304 304 304 304 303 302 301 302 302 301 300 299 299 299 301 302 302 301 298 296 295 294 294 293 292 291 291 292 293 294 294 296 297 298 300 300 301 300 300 297 293 289 284 282 280 278 276 273 270 269 268 270 273 275 277 278 278 279 282 287 290 292 291 291 293 294 295 294 294 296 300 301 300 300 300 300 300 300 300 299 295 289 281 279 279 279
302 302 303 302 302 301 301 302 302 301 300 301 301 302 303 303 302 301 297 296 295 294 292 293 293 293 292 293 293 293 294 294 294 295 297 298 300 301 302 301 299 296 293 289 287 284 281 277 271 265 260 259 262 267 273 276 278 280 283 287 290 291 291 292 294 296 297 296 296 296 297 296 295 295 297 299 301 303 305 306 304 301 294 289 285 284
301 300 300 300 300 299 300 301 301 301 300 301 301 302 303 303 302 300 297 295 294 293 292 292 292 292 292 293 293 294 295 295 295 295 296 298 300 301 302 303 303 302 300 298 296 294 292 287 279 270 260 254 254 258 266 273 278 282 284 286 289 291 293 294 296 298 299 299 299 298 296 294 293 293 295 298 302 305 308 309 310 310 310 306 302 298
301 300 299 299 298 298 299 299 299 299 298 298 299 300 301 301 300 299 297 296 295 293 293 292 291 291 291 292 293 294 295 295 295 295 296 298 300 301 301 302 303 304 305 305 305 306 305 304 301 293 279 268 260 259 266 276 282 286 288 289 291 293 294 295 296 298 299 299 299 297 296 295 295 297 299 302 304 307 309 312 313 314 315 314 312 309